Rbgn^[z[y[W
メイン
   新天体発見情報
     Comet C/2024 C1 (PANSTARRS)
投稿するにはまず登録を

フラット表示 前のトピック | 次のトピック
投稿者 スレッド
佐藤裕久
投稿日時: 2024-2-29 12:39
モデレータ
登録日: 2005-6-12
居住地: 日本
投稿: 2676
オンライン
Comet C/2024 C1 (PANSTARRS)

R. Weryk (西オンタリオ大学,物理および天文学科)の通報によると、2月9日、Haleakalaにある
Pan-STARRS2 1.8-m Ritchey-Chretien反射望遠鏡で得た画像から彗星を発見した。
4枚の45-秒のw-バンドサーベイ画像では、0".9-1".1のシーイングで、1".3 (半値全幅:FWHM)の
集光した頭部が見え、p.a. 285°に向かって約6"の尾がある。
Werykはさらにに、2023年12月12.6日UT(22.2-22.8等)、2024年1月20.5日(21.4-21.6等)と2月
4.41-4.45日(20.7-21.1等)に得たPan-STARRS2の発見前画像を同定した。
小惑星センターのPCCP webpageに公表後、佐藤英貴氏(東京都文京区,2月11.5日UT、120-秒露出
12枚のスタック, 0.43-m f/6.8 アストログラフ, Utah Desert Remote 天文台, Beryl Junction 
近郊,ユタ州, 米国, 遠隔操作:恒星状に見えた。5".7の円形範囲で測定した光度は20.85等で
あった。

彗星機能の報告は次のとおり、

OC   Date        Reporter           Coma    Tail    PA          Exposures
F52  2024-01-20  R. Weryk           0".3      3"    280           4x45s
F52  2024-02-04  R. Weryk           0".1      4"    280           4x45s
F52  2024-02-10  R. Weryk           0".2      5"    285           4x45s

発見位置は次のとおり、

     2024 UT             R.A. (2000) Decl.       Mag.
     Feb.  9.40398   10 51 12.81   +25 17 43.2   21.2
           9.41691   10 51 12.50   +25 17 46.7   21.1
           9.42983   10 51 12.20   +25 17 50.2   21.2
           9.44280   10 51 11.89   +25 17 53.8   21.2
           9.52931   10 51 09.85   +25 18 16.8   21.2
           9.53013   10 51 09.81   +25 18 17.0   21.1

MPCの楕円軌道要素、位置推算表は次のとおり、

Orbital elements:
    C/2024 C1 (PANSTARRS)                                                       
Epoch 2024 Mar. 31.0 TT = JDT 2460400.5                                         
T 2024 Aug. 31.27918 TT                                 Rudenko                 
q   4.4121322            (2000.0)            P               Q                  
n   0.02873144     Peri.   94.52442     -0.96918288     -0.03148485             
a  10.5575822      Node    83.80920     -0.07379591     -0.90914333             
e   0.5820888      Incl.   14.22647     +0.23502916     -0.41529160             
P  34.3                                                                         
From 34 observations 2023 Dec. 12-2024 Feb. 15, mean residual 0".2.             
                                                                                
Ephemeris:
Date    TT    R. A. (2000) Decl.     Delta      r    Elong.  Phase   m1
2024 01 16    10 57 09.2 +23 27 48   3.8723  4.6338   136.3     8.4  21.1
...
2024 01 31    10 54 20.3 +24 34 56   3.7240  4.6066   150.4     6.1  21.0
...
2024 02 08    10 51 44.1 +25 11 27   3.6683  4.5927   157.1     4.8  20.9
...
2024 02 14    10 49 23.2 +25 37 44   3.6382  4.5826   160.9     4.0  20.9
2024 02 15    10 48 58.1 +25 41 57   3.6342  4.5810   161.4     3.9  20.9
2024 02 16    10 48 32.6 +25 46 07   3.6305  4.5793   161.8     3.9  20.9
...
2024 02 22    10 45 53.2 +26 09 47   3.6144  4.5696   163.1     3.6  20.9
...
2024 03 01    10 42 10.2 +26 36 56   3.6090  4.5570   160.9     4.1  20.9
...
2024 03 16    10 35 25.4 +27 10 06   3.6474  4.5347   149.8     6.3  20.9

(MPEC 2024-C177、CBET 5348)

フラット表示 前のトピック | 次のトピック

題名 投稿者 日時
 » Comet C/2024 C1 (PANSTARRS) 佐藤裕久 2024-2-29 12:39

投稿するにはまず登録を
 
© 1999 Tsutomu Seki.